Lid_Strength_Index
2 3 3 4 7 7 9 8 6 7 6 4 3 4 5 5 7 9 1 0 -0 -0 -1 -1 -1 -1 -1 -1 -1 -1 -1 -1 -1 -1 -1 -1 -1 -1 -1 -1 -1 -1 -1 -1 -1 -1 -1 -1 -1
4 4 4 5 9 10 9 6 7 6 5 4 4 4 5 6 4 3 2 0 -0 -0 -1 -1 -1 -1 -1 -1 -1 -1 -1 -1 -1 -1 -1 -1 -1 -1 -1 -1 -1 -1 -1 -1 -1 -1 -1 -1 -1
4 4 6 7 9 10 9 7 6 5 4 4 5 3 4 5 3 3 1 -0 -0 -1 -1 -1 -1 -1 -1 -1 -1 -1 -1 -1 -1 -1 -1 -1 -1 -1 -1 -1 -1 -1 -1 -1 -1 -1 -1 -1 -1
5 6 6 9 9 7 7 7 6 5 5 4 4 5 3 2 3 1 -0 -0 -0 -0 -1 -1 -1 -1 -1 -1 -1 -1 -1 -1 -1 -1 -1 -1 -1 -1 -1 -1 -1 -1 -1 -1 -1 -1 -1 -1 -1
5 7 10 10 10 7 7 6 6 6 6 5 4 6 5 3 1 1 0 -0 0 -0 -1 -1 -1 -1 -1 -1 -1 -1 -1 -1 -1 -1 -1 -1 -1 -1 -1 -1 -1 -1 -1 -1 -1 -1 -1 -1 -1
6 5 9 11 10 8 7 6 6 7 6 5 5 5 5 2 2 1 0 0 -0 -0 -1 -1 -1 -1 -1 -1 -1 -1 -1 -1 -1 -1 -1 -1 -1 -1 -1 -1 -1 -1 -1 -1 -1 -1 -1 -1 -1
6 7 9 8 8 7 7 5 5 6 6 6 4 6 4 3 1 0 0 -0 -0 -0 -1 -1 -1 -1 -1 -1 -1 -1 -1 -1 -1 -1 -1 -1 -1 -1 -1 -1 -1 -1 -1 -1 -1 -1 -1 -1 -1
5 6 8 8 9 8 5 5 3 4 5 4 3 5 5 3 1 1 0 0 -0 -0 -0 -1 -1 -1 -1 -1 -1 -1 -1 -1 -1 -1 -1 -1 -1 -1 -1 -1 -1 -1 -1 -1 -1 -1 -1 -1 -1
5 8 10 9 9 7 5 6 3 3 4 4 3 4 3 2 1 1 1 1 1 0 -0 -1 -1 -1 -1 -1 -1 -1 -1 -1 -1 -1 -1 -1 -2 -2 -2 -2 -1 -1 -1 -1 -1 -1 -2 -2 -2
7 9 9 7 7 7 6 6 5 5 4 4 3 3 2 2 2 2 3 2 2 1 0 -0 -1 -1 -1 -1 -1 -2 -1 -2 -2 -2 -2 -2 -2 -2 -2 -2 -1 -1 -1 -1 -1 -1 -1 -1 -1
7 9 7 7 6 6 7 7 6 6 6 4 4 3 3 3 2 3 2 2 2 1 0 -0 -1 -1 -1 -1 -1 -1 -1 -1 -1 -2 -2 -2 -2 -2 -2 -1 -1 -2 -1 -1 -2 -1 -2 -2 -2
10 8 7 7 7 7 7 6 7 6 5 3 3 3 3 3 3 3 2 2 1 1 1 -0 -0 -0 -1 -1 -1 -1 -1 -1 -1 -1 -2 -1 -1 -1 -1 -1 -1 -2 -1 -2 -2 -1 -2 -2 -2
9 8 8 7 7 7 7 8 7 7 5 4 3 3 4 3 4 2 2 2 1 1 1 0 -0 -0 -1 -1 -1 -1 -1 -1 -1 -1 -1 -1 -1 -1 -1 -1 -1 -1 -1 -1 -1 -1 -1 -1 -1
8 8 8 7 7 7 9 8 8 7 6 5 5 4 4 4 4 5 4 2 1 1 1 0 -0 -0 -1 -0 -1 -1 -1 -1 -1 -1 -1 -1 -1 -1 -1 -1 -1 -1 -1 -1 -1 -1 -1 -1 -1
7 8 7 7 7 8 8 10 9 7 6 7 5 5 4 4 3 3 3 2 4 1 0 0 -0 -0 -0 -1 -1 -1 -1 -1 -1 -1 -2 -1 -2 -1 -1 -1 -0 -1 -1 -2 -1 -1 -1 -0 -1
7 7 9 7 7 6 8 10 7 6 7 7 5 5 5 5 3 2 2 2 1 2 0 0 0 -0 -0 -0 -0 -0 -1 -1 -1 -1 -1 -1 -1 -2 -1 -0 -0 -1 -1 -1 -0 -0 0 0 0
7 9 9 8 5 6 7 8 6 5 6 7 5 5 5 5 3 1 2 1 2 1 -0 0 0 0 -0 -1 -0 -0 -1 -0 -1 -1 -1 -1 -1 -1 -1 -0 -1 -1 -0 -0 -0 0 0 1 0
9 9 8 8 6 7 7 7 5 5 6 6 5 4 4 5 3 2 1 1 1 1 1 1 0 0 0 -0 -0 -0 -0 -0 -1 -0 -1 -1 -1 -1 -1 -0 -0 -1 -0 0 0 0 -0 0 0
8 8 9 7 6 7 7 7 6 5 5 5 4 3 3 3 2 1 1 1 0 0 1 1 1 0 0 1 1 1 1 0 0 -0 -1 -1 -1 -1 -1 -0 -1 -1 -0 -1 -1 -0 0 1 -0
7 8 8 7 6 7 7 7 6 5 5 4 4 4 3 3 2 2 2 1 1 1 1 1 1 0 0 1 1 0 1 0 -0 -1 -1 -1 -1 -1 -1 -1 -1 -2 -0 -1 -1 -0 1 0 -0
8 8 8 8 7 6 7 8 7 5 4 4 4 3 3 3 3 2 2 1 1 2 1 1 1 1 0 -0 0 1 1 0 0 0 -0 -1 -1 -1 -2 -1 -1 -1 -1 -0 -1 -1 -0 1 0
9 7 7 8 9 11 7 11 8 6 6 5 4 4 3 3 2 2 2 2 1 1 1 1 0 1 0 -0 0 0 1 1 0 0 -1 -1 -1 -1 -2 -2 -1 -2 -1 -1 -1 -1 -1 0 1
8 6 7 8 9 9 9 10 9 7 7 6 5 4 3 3 2 3 2 2 1 1 1 1 0 0 -0 -0 -1 0 -1 0 -0 -1 -0 -1 -1 -1 -1 -1 -1 -1 -0 -1 -1 -1 -0 -0 1
6 7 7 7 8 12 9 10 10 8 7 6 5 4 4 3 3 2 2 2 2 1 1 1 1 1 0 0 -0 0 1 1 0 0 0 0 -0 -1 -1 -1 -1 -1 -1 -1 -0 -1 -0 0 0
7 9 12 13 13 13 9 10 9 7 6 6 5 4 4 3 3 3 3 2 2 2 1 1 1 1 0 0 0 0 0 0 1 0 0 0 0 0 -1 -1 -1 -1 -1 -1 -1 -0 -0 -0 1
8 9 12 15 14 13 9 11 9 6 5 5 5 4 4 4 3 3 2 2 2 1 1 1 1 1 0 0 0 0 0 1 1 0 1 1 1 1 -1 -1 -1 -1 -1 -1 -1 -0 -0 -0 0
8 10 7 11 11 12 11 9 7 6 6 5 5 5 5 4 3 3 2 2 2 1 1 1 1 0 1 1 1 1 1 1 1 1 0 1 0 1 1 0 1 1 1 1 0 1 -0 -0 0
7 6 11 10 15 16 12 11 10 8 7 6 6 5 4 4 3 3 2 2 2 1 1 1 1 2 2 2 2 2 2 1 1 1 1 1 1 1 1 1 1 2 1 1 1 1 0 0 0
9 9 9 9 10 15 15 12 7 7 6 6 6 5 4 4 3 3 2 2 2 2 2 2 2 3 2 3 2 2 2 2 2 2 2 2 1 2 2 2 2 3 3 2 1 2 2 2 1
7 8 9 12 13 11 12 12 6 6 6 5 5 5 4 3 3 3 3 3 3 3 3 3 3 3 3 3 3 2 2 2 2 2 2 2 2 2 2 3 3 3 2 2 3 3 3 4 4